SCP
0 0 0 0 0 0 0 0 0 0 0 0 0 0 0 0 0 0 0 0 0 0
0 0 0 0 0 0 0 0 0 0 0 0 0 0 0 0 0 0 0 0 0 0
0 0 0 0 0 0 0 0 0 0 0 0 0 0 0 0 0 0 0 0 0 0
0 0 0 0 0 0 0 0 0 0 0 0 0 0 0 0 0 0 0 0 0 0
0 0 0 0 0 0 0 0 0 0 0 0 0 0 0 0 0 0 0 0 0 0
0 0 0 0 0 0 0 0 0 0 0 0 0 0 0 0 0 0 0 0 0 0
0 0 0 0 0 0 0 0 0 0 0 0 0 0 0 0 0 0 0 0 0 0
0 0 0 0 0 0 0 0 0 0 0 0 0 0 0 0 0 0 0 0 0 0
0 0 0 0 0 0 0 0 0 0 0 0 0 0 0 0 0 0 0 0 0 0
0 0 0 0 0 0 0 0 0 0 0 0 0 0 0 0 0 0 0 0 0 0
0 0 0 0 0 0 0 0 0 0 0 0 0 0 0 0 0 0 0 0 0 0
0 0 0 0 0 0 0 0 0 0 0 0 0 0 0 0 0 0 0 0 0 0
0 0 0 0 0 0 0 0 0 0 0 0 0 0 0 0 0 0 0 0 0 0
0 0 0 0 0 0 0 0 0 0 0 0 0 0 0 0 0 0 0 0 0 0
Wind_Speed_500mb
71 71 79 78 73 75 69 68 62 62 66 68 67 63 60 55 51 45 41 37 33 27
70 75 79 78 77 75 71 65 63 66 72 73 69 65 62 57 52 46 40 35 30 26
71 74 74 75 76 75 75 71 68 72 79 77 72 67 62 57 50 44 38 33 28 22
69 74 76 77 79 76 76 78 76 78 85 82 77 71 64 56 48 43 37 32 26 23
67 76 77 78 78 77 77 83 83 85 90 86 79 71 63 56 48 41 34 30 26 20
70 75 78 75 76 76 79 82 84 87 89 85 77 70 62 52 44 38 34 28 19 16
72 76 73 72 74 75 78 82 85 87 89 84 77 71 62 55 48 41 35 23 20 26
70 75 75 74 74 74 75 80 83 91 93 86 80 72 65 58 50 43 30 31 28 33
74 80 82 79 78 78 79 83 89 96 98 91 82 71 64 57 50 40 43 40 32 38
81 84 85 82 80 84 85 85 94 100 98 90 81 74 67 60 50 46 53 57 40 47
83 85 86 83 81 84 84 86 95 100 97 88 82 74 67 61 56 53 68 60 51 53
80 84 85 84 82 83 82 85 93 96 92 86 78 73 69 64 57 71 72 66 60 60
70 76 79 79 80 81 79 84 86 83 80 78 74 72 68 57 65 73 71 75 62 72
52 59 66 70 71 71 72 67 69 74 74 71 68 67 63 67 81 73 74 72 67 65
Wind_Direction_500mb
225 217 221 220 226 225 226 227 225 225 215 205 202 200 201 202 204 205 205 208 207 211
222 215 217 221 225 224 222 221 226 222 209 202 201 201 202 203 204 203 204 203 204 207
222 219 220 223 224 226 222 218 220 217 207 203 201 202 204 204 204 205 202 202 203 206
225 221 222 224 226 227 225 220 217 216 209 205 204 203 205 205 206 203 203 201 201 207
228 222 224 226 229 228 225 222 218 214 209 207 206 206 206 207 206 205 202 202 205 213
226 221 223 229 231 230 228 224 218 214 211 208 208 208 208 208 208 204 201 202 204 255
228 221 225 231 232 231 228 223 217 214 213 211 211 211 210 208 204 204 202 194 241 249
229 221 225 229 232 232 230 225 219 214 213 212 212 211 209 208 207 204 214 222 244 241
230 222 226 227 229 234 231 224 217 214 214 211 211 211 211 212 209 211 213 239 233 246
232 227 228 229 230 233 232 226 217 213 214 212 212 211 213 213 210 213 229 247 229 246
233 232 230 231 232 235 232 227 218 214 212 212 213 213 213 213 213 225 244 247 238 243
233 232 231 230 231 234 232 225 220 216 213 213 215 215 213 212 220 245 254 256 250 239
234 233 233 231 232 232 230 225 220 218 217 220 217 215 216 218 243 255 258 265 252 253
234 233 231 230 229 230 226 220 221 224 222 221 218 219 217 237 253 257 264 263 255 260
Wind_Speed_850mb
71 71 79 78 73 75 69 68 62 62 66 68 67 63 60 55 51 45 41 37 33 27
70 75 79 78 77 75 71 65 63 66 72 73 69 65 62 57 52 46 40 35 30 26
71 74 74 75 76 75 75 71 68 72 79 77 72 67 62 57 50 44 38 33 28 22
69 74 76 77 79 76 76 78 76 78 85 82 77 71 64 56 48 43 37 32 26 23
67 76 77 78 78 77 77 83 83 85 90 86 79 71 63 56 48 41 34 30 26 20
70 75 78 75 76 76 79 82 84 87 89 85 77 70 62 52 44 38 34 28 19 16
72 76 73 72 74 75 78 82 85 87 89 84 77 71 62 55 48 41 35 23 20 26
70 75 75 74 74 74 75 80 83 91 93 86 80 72 65 58 50 43 30 31 28 33
74 80 82 79 78 78 79 83 89 96 98 91 82 71 64 57 50 40 43 40 32 38
81 84 85 82 80 84 85 85 94 100 98 90 81 74 67 60 50 46 53 57 40 47
83 85 86 83 81 84 84 86 95 100 97 88 82 74 67 61 56 53 68 60 51 53
80 84 85 84 82 83 82 85 93 96 92 86 78 73 69 64 57 71 72 66 60 60
70 76 79 79 80 81 79 84 86 83 80 78 74 72 68 57 65 73 71 75 62 72
52 59 66 70 71 71 72 67 69 74 74 71 68 67 63 67 81 73 74 72 67 65
Wind_Direction_850mb
225 217 221 220 226 225 226 227 225 225 215 205 202 200 201 202 204 205 205 208 207 211
222 215 217 221 225 224 222 221 226 222 209 202 201 201 202 203 204 203 204 203 204 207
222 219 220 223 224 226 222 218 220 217 207 203 201 202 204 204 204 205 202 202 203 206
225 221 222 224 226 227 225 220 217 216 209 205 204 203 205 205 206 203 203 201 201 207
228 222 224 226 229 228 225 222 218 214 209 207 206 206 206 207 206 205 202 202 205 213
226 221 223 229 231 230 228 224 218 214 211 208 208 208 208 208 208 204 201 202 204 255
228 221 225 231 232 231 228 223 217 214 213 211 211 211 210 208 204 204 202 194 241 249
229 221 225 229 232 232 230 225 219 214 213 212 212 211 209 208 207 204 214 222 244 241
230 222 226 227 229 234 231 224 217 214 214 211 211 211 211 212 209 211 213 239 233 246
232 227 228 229 230 233 232 226 217 213 214 212 212 211 213 213 210 213 229 247 229 246
233 232 230 231 232 235 232 227 218 214 212 212 213 213 213 213 213 225 244 247 238 243
233 232 231 230 231 234 232 225 220 216 213 213 215 215 213 212 220 245 254 256 250 239
234 233 233 231 232 232 230 225 220 218 217 220 217 215 216 218 243 255 258 265 252 253
234 233 231 230 229 230 226 220 221 224 222 221 218 219 217 237 253 257 264 263 255 260